Estació municipal de El Brull (Osona, P.N. del Montseny)

Consulta les dades en temps real de l'estació municipal de El Brull





Hora UTC 13:10
Temperatura 35.3 ºC
Humitat 25.5 %
Pressió 1024.3 hPa
Pluja 0.0 mm
Velocitat vent 9.9 km/h
Direcció vent SSW
Radiació solar 745.3 W/m²

Webcam

Dades diàries 2026-09-06



Hora UTC (hivern +1h; estiu +2h)
Temperatura (ºC) Humitat (%) Pressió (hPa) Velocitat vent (km/h) Precipitació (mm) Radiació solar (W/m²)
Hora UTC Aire Humitat Pressió Vel. Dir. Vel. Max Dir. Intent. màx 5 min. Rad. Sol.
00:10 25.4 40.0 1025.2 3.5 NNW 4.7 NNW 0.0 0.0
00:20 24.9 43.1 1025.2 2.3 N 4.2 N 0.0 0.0
00:30 25.1 42.8 1025.1 0.3 ESE 1.5 E 0.0 0.0
00:40 25.0 41.3 1025.1 1.4 E 2.8 E 0.0 0.0
00:50 25.0 40.6 1025.0 1.8 SE 5.1 SE 0.0 0.0
01:00 25.0 40.8 1025.0 2.3 SE 5.5 SE 0.0 0.0
01:10 25.1 42.0 1024.9 0.9 SSE 4.9 SSE 0.0 0.0
01:20 25.4 41.6 1024.9 2.9 E 6.7 SE 0.0 0.0
01:30 25.3 40.6 1024.9 1.3 NNE 4.2 N 0.0 0.0
01:40 25.3 40.6 1024.9 1.6 ESE 3.6 ESE 0.0 0.0
01:50 25.3 39.9 1024.8 3.1 ESE 6.0 SE 0.0 0.0
02:00 25.5 38.2 1024.7 1.2 ESE 4.1 SE 0.0 0.0
02:10 25.6 38.1 1024.7 2.2 NNE 5.8 NNW 0.0 0.0
02:20 24.7 41.4 1024.7 0.4 NNE 3.1 NNW 0.0 0.0
02:30 24.1 44.1 1024.7 0.5 NE 1.6 NE 0.0 0.0
02:40 24.1 42.7 1024.7 0.4 NE 1.9 NE 0.0 0.0
02:50 24.3 42.1 1024.7 0.3 NE 1.8 NE 0.0 0.0
03:00 24.2 41.7 1024.7 1.0 NE 2.0 NE 0.0 0.0
03:10 24.3 40.3 1024.7 1.1 NE 4.0 NE 0.0 0.0
03:20 24.6 37.8 1024.7 1.4 NE 4.0 NE 0.0 0.0
03:30 25.3 38.3 1024.6 2.2 E 5.2 ESE 0.0 0.0
03:40 25.7 39.0 1024.5 1.6 E 5.5 ESE 0.0 0.0
04:00 26.4 36.6 1024.4 2.4 ENE 5.9 ENE 0.0 0.0
04:10 26.6 36.0 1024.3 1.9 E 4.9 ESE 0.0 0.0
04:20 26.5 35.6 1024.3 0.9 ESE 4.0 ENE 0.0 0.0
04:30 26.4 35.6 1024.3 1.4 SE 4.0 ESE 0.0 0.0
04:40 26.3 35.6 1024.3 3.2 SE 7.6 SE 0.0 0.0
04:50 26.3 35.1 1024.3 2.9 ESE 5.9 E 0.0 0.0
05:00 26.2 35.7 1024.2 1.8 ESE 4.7 ESE 0.0 0.1
05:10 26.2 35.2 1024.2 1.7 ESE 5.2 SE 0.0 0.5
05:20 26.4 34.5 1024.3 0.7 E 3.5 ENE 0.0 2.2
05:30 26.4 34.5 1024.3 1.0 ESE 3.8 E 0.0 6.2
05:40 26.4 34.2 1024.3 1.6 ESE 4.8 ESE 0.0 13.3
05:50 26.3 34.6 1024.3 2.0 SE 7.1 SE 0.0 22.2
06:00 26.1 34.6 1024.4 2.3 SE 5.3 SE 0.0 31.6
06:10 26.3 34.6 1024.4 3.5 ESE 9.1 ESE 0.0 41.8
06:20 26.4 34.7 1024.5 3.6 ESE 8.7 SE 0.0 53.8
06:30 26.5 35.2 1024.6 3.1 SE 7.3 SE 0.0 65.7
06:40 26.8 34.9 1024.6 1.8 SE 4.6 SSE 0.0 134.5
06:50 27.6 33.3 1024.7 2.8 SE 7.5 S 0.0 178.6
07:00 28.5 32.8 1024.7 3.0 SSE 7.2 ESE 0.0 210.9
07:10 29.1 30.2 1024.7 2.4 S 6.6 SSE 0.0 245.9
07:20 29.7 29.5 1024.8 3.8 SSE 6.5 SSE 0.0 279.7
07:30 30.4 28.9 1024.8 2.5 S 6.1 SSW 0.0 303.2
07:40 30.6 28.7 1024.8 3.4 SSW 5.6 SSW 0.0 336.3
07:50 31.0 28.9 1024.8 3.8 S 6.2 SSW 0.0 368.2
08:00 31.1 28.8 1024.8 3.3 S 5.3 S 0.0 397.7
08:10 31.3 27.6 1024.8 2.9 S 6.6 S 0.0 426.8
08:20 31.6 27.3 1024.8 4.2 SSW 7.2 S 0.0 455.0
08:30 32.0 27.1 1024.9 4.6 S 6.7 S 0.0 475.0
08:40 32.1 26.8 1024.9 5.3 S 9.4 S 0.0 506.5
09:00 32.5 26.6 1025.0 6.8 SSW 15.3 SSW 0.0 561.9
09:10 32.6 26.2 1025.1 7.1 SSW 13.9 SW 0.0 585.9
09:20 32.8 27.2 1025.1 7.8 S 14.6 SSW 0.0 608.6
09:30 32.9 27.0 1025.1 8.3 SSW 14.8 S 0.0 630.2
09:40 33.2 27.3 1025.1 8.2 SSW 15.3 SSW 0.0 651.2
09:50 33.9 26.4 1025.1 8.6 S 16.0 SSW 0.0 670.5
10:00 34.0 25.0 1025.1 8.9 S 14.9 SSW 0.0 689.4
10:10 34.6 25.0 1025.1 8.3 SSW 16.1 SSW 0.0 706.9
10:20 34.6 25.4 1025.0 9.6 S 19.8 S 0.0 721.0
10:30 35.1 24.9 1025.0 8.4 S 16.3 WSW 0.0 735.5
10:40 35.4 24.0 1025.0 8.3 SSW 18.5 SSW 0.0 745.8
11:00 35.5 23.8 1024.9 8.9 SSW 18.9 SSW 0.0 751.5
11:10 35.7 23.4 1024.8 10.1 S 19.3 SSW 0.0 778.7
11:30 35.8 23.8 1024.8 10.1 SSW 20.1 SSW 0.0 788.8
11:40 35.7 23.7 1024.7 10.6 SSW 20.3 SSW 0.0 792.5
12:00 35.7 23.4 1024.7 11.0 SSW 20.1 SSW 0.0 794.7
12:10 35.7 23.5 1024.7 9.3 SSW 25.2 S 0.0 790.9
12:20 35.7 23.7 1024.6 10.4 S 20.0 SSW 0.0 779.7
12:40 35.6 23.3 1024.5 10.3 S 20.8 SSW 0.0 778.8
13:00 35.8 24.2 1024.4 10.5 SSW 19.3 SSW 0.0 757.2
13:10 35.3 25.5 1024.3 9.9 SSW 20.3 S 0.0 745.3
Màxima 35.8 44.1 1025.2 11.0 SSW 25.2 S 0.0 794.7
Mínima 20 23.3 1024.2
Total 0.0